Location: Unspecified
(0.0000°N, 0.0000°E)
Time: 19:05:49
(UTC+01:00)

Ariane H10 - Visible Passes

Search period start: 27 February 2017 00:00
Search period end: 09 March 2017 00:00
Orbit: 423 x 35042 km, 4.6° (Epoch: 27 February)

Date Brightness Start Highest point End Pass type
(mag) Time Alt. Az. Time Alt. Az. Time Alt. Az.
27 Feb 7.2 02:38:42 84° ENE 02:38:42 84° ENE 12:01:17 10° E visible
27 Feb 8.2 23:21:00 13° E 23:21:00 13° E 08:16:23 10° E visible
01 Mar 5.0 06:24:28 12° W 08:06:05 48° W 15:58:29 10° E visible
02 Mar 7.2 03:06:45 82° W 03:13:03 90° N 12:30:30 10° E visible
02 Mar 8.1 23:49:03 22° E 23:49:03 22° E 08:50:50 10° E visible
03 Mar 2.1 19:48:44 10° WNW 19:51:20 39° N 19:53:53 14° ENE visible
05 Mar 6.9 03:34:49 70° W 03:59:09 88° S 12:59:25 10° E visible
06 Mar 8.0 00:17:08 32° E 00:17:08 32° E 09:23:25 10° E visible
06 Mar 2.3 20:17:28 10° WNW 20:19:59 41° N 20:21:11 30° NE visible
08 Mar 6.5 04:02:55 58° W 05:19:58 86° SW 13:28:08 10° E visible
